Location: Kalberh�ni
(46.4610°N, 7.2453°E)
Time: 07:07:27
(UTC+00:00)

EO 1 Del DPAF - Pass Details

Date: 20 June 2021
Orbit: 506 x 507 km, 98.0° (Epoch: 28 July)

Event Time Altitude Azimuth Distance (km) Brightness Sun altitude
Rises 23:35:43 0° 21° (NNE) 2,621 8.1 -20.1°
Reaches altitude 10° 23:37:56 10° 30° (NNE) 1,730 6.7 -20.1°
Maximum altitude 23:41:24 36° 98° (E) 824 4.1 -20.1°
Enters shadow 23:41:44 35° 111° (ESE) 837 4.0 -20.1°
